AZSOONER Weather Reports


Display with metric or nautical units.
time (UTC)temp
F
wind
direction
speed
MPH
gust
MPH
rain 1hr
in
rain 24hr
in
rain mn
in
humidity
%
barometer
mb
20260508014539 90 180 2.0 7.0 0.00 0.00 0.00 9 1008.7
20260508013038 91 153 3.0 7.0 0.00 0.00 0.00 9 1008.7
20260508011539 91 188 4.0 11.0 0.00 0.00 0.00 8 1008.6
20260508010035 92 156 5.0 10.0 0.00 0.00 0.00 8 1008.5
20260508004542 92 132 1.0 5.0 0.00 0.00 0.00 7 1008.5
20260508003038 93 5 2.0 9.0 0.00 0.00 0.00 6 1008.6
20260508001538 93 271 3.0 9.0 0.00 0.00 0.00 6 1008.5
20260508000034 93 298 3.0 7.0 0.00 0.00 0.00 6 1008.6
20260507234548 94 35 1.0 7.0 0.00 0.00 0.00 6 1008.7
20260507233040 93 273 2.0 6.0 0.00 0.00 0.00 6 1008.8
20260507231546 93 114 1.0 6.0 0.00 0.00 0.00 7 1008.7
20260507230039 93 41 6.0 10.0 0.00 0.00 0.00 7 1009.0
20260507224536 94 302 3.0 9.0 0.00 0.00 0.00 8 1009.0
20260507223034 94 11 6.0 12.0 0.00 0.00 0.00 8 1009.2
20260507221539 94 278 3.0 15.0 0.00 0.00 0.00 8 1009.2
20260507220039 93 128 5.0 14.0 0.00 0.00 0.00 10 1009.5
20260507214536 92 80 5.0 10.0 0.00 0.00 0.00 11 1009.6
20260507213045 91 76 5.0 10.0 0.00 0.00 0.00 12 1009.8
20260507211536 91 211 6.0 11.0 0.00 0.00 0.00 12 1010.1
20260507210044 92 180 5.0 10.0 0.00 0.00 0.00 12 1010.3
20260507204543 90 202 3.0 6.0 0.00 0.00 0.00 11 1010.6
20260507203043 91 40 3.0 8.0 0.00 0.00 0.00 12 1010.8
20260507201538 89 264 2.0 10.0 0.00 0.00 0.00 11 1010.9
20260507200034 90 140 2.0 7.0 0.00 0.00 0.00 13 1011.2
20260507194534 90 0 1.0 7.0 0.00 0.00 0.00 13 1011.6
20260507193049 88 96 2.0 9.0 0.00 0.00 0.00 14 1011.8
20260507191539 89 288 3.0 9.0 0.00 0.00 0.00 14 1012.0
20260507190039 89 59 5.0 10.0 0.00 0.00 0.00 15 1012.2
20260507184535 87 360 1.0 9.0 0.00 0.00 0.00 15 1012.5
20260507183043 87 360 2.0 8.0 0.00 0.00 0.00 16 1012.6
20260507181538 85 0 1.0 9.0 0.00 0.00 0.00 17 1012.8
20260507180039 85 360 1.0 5.0 0.00 0.00 0.00 18 1013.0
20260507174539 85 0 1.0 4.0 0.00 0.00 0.00 20 1013.0
20260507173042 83 360 1.0 10.0 0.00 0.00 0.00 19 1013.3
20260507171540 82 360 3.0 8.0 0.00 0.00 0.00 21 1013.3
20260507170040 81 360 2.0 8.0 0.00 0.00 0.00 23 1013.5
20260507164536 81 360 3.0 10.0 0.00 0.00 0.00 22 1013.5
20260507163037 80 360 3.0 8.0 0.00 0.00 0.00 23 1013.5
20260507161535 79 360 4.0 10.0 0.00 0.00 0.00 26 1013.5
20260507160033 77 360 4.0 9.0 0.00 0.00 0.00 28 1013.6
20260507154539 75 360 3.0 5.0 0.00 0.00 0.00 28 1013.7
20260507153036 73 360 0.0 3.0 0.00 0.00 0.00 32 1013.8
20260507151538 70 0 0.0 2.0 0.00 0.00 0.00 32 1013.9
20260507150035 68 360 1.0 4.0 0.00 0.00 0.00 37 1013.8
20260507144547 66 360 1.0 4.0 0.00 0.00 0.00 39 1013.9
20260507143036 64 360 2.0 5.0 0.00 0.00 0.00 42 1014.0
20260507141537 62 360 1.0 4.0 0.00 0.00 0.00 50 1013.9
20260507140042 61 360 2.0 4.0 0.00 0.00 0.00 43 1013.8
20260507134542 61 360 0.0 2.0 0.00 0.00 0.00 44 1013.6
20260507133038 59 0 0.0 2.0 0.00 0.00 0.00 44 1013.4
20260507131541 57 0 0.0 4.0 0.00 0.00 0.00 47 1013.5
20260507130039 56 360 2.0 4.0 0.00 0.00 0.00 50 1013.3
20260507124534 58 360 0.0 3.0 0.00 0.00 0.00 50 1013.1
20260507123040 60 0 0.0 0.0 0.00 0.00 0.00 45 1013.0
20260507121539 58 0 0.0 0.0 0.00 0.00 0.00 49 1013.1
20260507120038 58 0 0.0 0.0 0.00 0.00 0.00 48 1013.1
20260507114535 60 0 0.0 0.0 0.00 0.00 0.00 44 1013.4
20260507113041 60 0 0.0 0.0 0.00 0.00 0.00 45 1013.4
20260507111543 60 0 0.0 0.0 0.00 0.00 0.00 47 1013.5
20260507110039 60 0 0.0 2.0 0.00 0.00 0.00 44 1013.5
20260507104537 60 360 1.0 3.0 0.00 0.00 0.00 45 1013.5
20260507103040 60 360 1.0 4.0 0.00 0.00 0.00 44 1013.4
20260507101547 62 0 0.0 0.0 0.00 0.00 0.00 39 1013.5
20260507100043 63 0 0.0 1.0 0.00 0.00 0.00 38 1013.4
20260507094544 65 0 0.0 2.0 0.00 0.00 0.00 34 1013.5
20260507093043 65 0 0.0 1.0 0.00 0.00 0.00 33 1013.5
20260507091539 67 0 0.0 0.0 0.00 0.00 0.00 29 1013.5
20260507090040 67 0 0.0 2.0 0.00 0.00 0.00 28 1013.6
20260507084544 68 0 1.0 4.0 0.00 0.00 0.00 28 1013.7
20260507083039 68 0 0.0 1.0 0.00 0.00 0.00 28 1013.7
20260507081536 69 360 1.0 4.0 0.00 0.00 0.00 26 1013.8
20260507080039 70 360 3.0 5.0 0.00 0.00 0.00 25 1013.8
20260507074541 70 360 2.0 8.0 0.00 0.00 0.00 26 1013.9
20260507073040 70 360 3.0 8.0 0.00 0.00 0.00 26 1013.8
20260507071538 69 360 3.0 6.0 0.00 0.00 0.00 27 1013.9
20260507070039 70 360 3.0 6.0 0.00 0.00 0.00 27 1013.9
20260507064539 70 360 3.0 6.0 0.00 0.00 0.00 26 1013.9
20260507063047 71 360 2.0 6.0 0.00 0.00 0.00 25 1013.9
20260507061542 71 360 2.0 8.0 0.00 0.00 0.00 24 1013.9
20260507060050 71 360 3.0 8.0 0.00 0.00 0.00 25 1014.0
20260507054546 71 360 2.0 8.0 0.00 0.00 0.00 25 1014.0
20260507053041 72 360 2.0 6.0 0.00 0.00 0.00 24 1014.0
20260507051540 72 360 2.0 5.0 0.00 0.00 0.00 24 1013.9
20260507050039 72 360 2.0 5.0 0.00 0.00 0.00 25 1013.8
20260507044549 72 360 2.0 4.0 0.00 0.00 0.00 24 1013.8
20260507043036 73 360 1.0 8.0 0.00 0.00 0.00 23 1013.7
20260507041539 74 360 3.0 9.0 0.00 0.00 0.00 23 1013.6
20260507040042 74 360 1.0 6.0 0.00 0.00 0.00 23 1013.3
20260507034542 75 360 2.0 5.0 0.00 0.00 0.00 23 1013.2
20260507033039 76 360 3.0 5.0 0.00 0.00 0.00 22 1013.1
20260507031539 77 360 2.0 4.0 0.00 0.00 0.00 22 1012.9
20260507030040 78 0 1.0 4.0 0.00 0.00 0.00 23 1012.7
20260507024542 78 360 1.0 3.0 0.00 0.00 0.00 25 1012.5
20260507023033 80 360 1.0 3.0 0.00 0.00 0.00 21 1012.3
20260507021539 80 360 1.0 4.0 0.00 0.00 0.00 20 1012.2
20260507020048 81 360 2.0 5.0 0.00 0.00 0.00 19 1012.2